UAE95 OMDB-LIRF

Flight info

Callsign UAE95
Flight time 6h 38m
Altitude 34000
Route ANVIX L223 TARDI N629 BOTAM Y855 LAKLU Q204 NALKI G652 TOKRA ALROK BOSOB ITRUX Y511 PMA Z712 WEJ L677 CVO L617 TANSA TRL OSDES UN1 LATAN VEGAN SOR TEA SIPRO Z803 LAT
Aircraft B77W/H-SDE1E2E3FGHIJ2J3J4J5M1RWXYZ/LB1D1

Departure

Time 2026-05-05 14:52
Airport Dubai International Airport (OMDB)

Arrival

Time 2026-05-05 21:30
Airport Rome–Fiumicino Leonardo da Vinci International Airport (LIRF)
Time Latitude Longitude Altitude Speed Heading
2026-05-05 13:51 25.24394 55.37292 29 ft 0 kts 211°
2026-05-05 14:38 25.24402 55.37297 26 ft 4 kts 211°
2026-05-05 14:38 25.24425 55.37313 32 ft 4 kts 211°
2026-05-05 14:38 25.24446 55.37327 24 ft 4 kts 208°
2026-05-05 14:38 25.24467 55.37336 24 ft 4 kts 178°
2026-05-05 14:39 25.24482 55.37332 25 ft 4 kts 132°
2026-05-05 14:39 25.24495 55.37309 25 ft 4 kts 117°
2026-05-05 14:39 25.24502 55.37295 24 ft 0 kts 122°
2026-05-05 14:44 25.24477 55.37338 24 ft 10 kts 122°
2026-05-05 14:44 25.24442 55.37401 26 ft 10 kts 122°
2026-05-05 14:44 25.24407 55.37463 26 ft 10 kts 122°
2026-05-05 14:44 25.24372 55.37526 26 ft 10 kts 122°
2026-05-05 14:45 25.24338 55.37588 26 ft 10 kts 121°
2026-05-05 14:45 25.24303 55.37651 26 ft 10 kts 121°
2026-05-05 14:45 25.24270 55.37714 27 ft 10 kts 109°
2026-05-05 14:45 25.24292 55.37782 27 ft 10 kts 46°
2026-05-05 14:46 25.24344 55.37827 28 ft 6 kts 33°
2026-05-05 14:46 25.24347 55.37828 29 ft 0 kts 33°
2026-05-05 14:47 25.24356 55.37836 29 ft 5 kts 34°
2026-05-05 14:47 25.24409 55.37875 33 ft 13 kts 33°
2026-05-05 14:47 25.24481 55.37929 35 ft 13 kts 35°
2026-05-05 14:48 25.24513 55.37953 34 ft 3 kts 34°
2026-05-05 14:48 25.24585 55.38007 30 ft 18 kts 34°
2026-05-05 14:48 25.24640 55.38047 30 ft 0 kts 32°
2026-05-05 14:50 25.24649 55.38053 30 ft 8 kts 32°
2026-05-05 14:50 25.24717 55.38099 34 ft 12 kts 30°
2026-05-05 14:50 25.24765 55.38094 35 ft 6 kts 314°
2026-05-05 14:50 25.24785 55.38064 35 ft 0 kts 303°
2026-05-05 14:51 25.24786 55.38063 35 ft 0 kts 303°
2026-05-05 14:51 25.24809 55.38022 34 ft 22 kts 303°
2026-05-05 14:51 25.25062 55.37566 36 ft 119 kts 301°
2026-05-05 14:51 25.25658 55.36491 50 ft 205 kts 302°
2026-05-05 14:52 25.26434 55.35096 1089 ft 202 kts 303°
2026-05-05 14:52 25.27164 55.33714 2204 ft 217 kts 302°
2026-05-05 14:52 25.27943 55.32184 2970 ft 235 kts 301°
2026-05-05 14:52 25.28740 55.30653 3735 ft 227 kts 301°
2026-05-05 14:53 25.29551 55.29135 4196 ft 232 kts 300°
2026-05-05 14:53 25.30023 55.27430 4167 ft 238 kts 268°
2026-05-05 14:53 25.29516 55.25749 4063 ft 234 kts 229°
2026-05-05 14:53 25.28387 55.24438 4037 ft 242 kts 227°
2026-05-05 14:54 25.27324 55.22953 4193 ft 254 kts 236°
2026-05-05 14:54 25.26408 55.21259 4844 ft 256 kts 240°
2026-05-05 14:54 25.25529 55.19486 5303 ft 273 kts 241°
2026-05-05 14:54 25.24418 55.17777 5753 ft 279 kts 217°
2026-05-05 14:55 25.22676 55.16866 6429 ft 281 kts 189°
2026-05-05 14:55 25.20731 55.16778 7119 ft 281 kts 172°
2026-05-05 14:55 25.18875 55.17491 7723 ft 287 kts 144°
2026-05-05 14:55 25.17512 55.19089 8455 ft 288 kts 121°
2026-05-05 14:56 25.16549 55.21052 9059 ft 295 kts 117°
2026-05-05 14:56 25.15597 55.23078 9768 ft 299 kts 118°
2026-05-05 14:56 25.14632 55.25116 10489 ft 301 kts 118°
2026-05-05 14:56 25.13652 55.27176 11182 ft 304 kts 118°
2026-05-05 14:57 25.12663 55.29247 11858 ft 307 kts 118°
2026-05-05 14:57 25.11658 55.31338 12549 ft 311 kts 118°
2026-05-05 14:57 25.10639 55.33465 13164 ft 318 kts 117°
2026-05-05 14:57 25.09665 55.35741 13348 ft 340 kts 114°
2026-05-05 14:58 25.08683 55.38182 13625 ft 357 kts 114°
2026-05-05 14:58 25.07650 55.40731 14123 ft 366 kts 114°
2026-05-05 14:58 25.06615 55.43318 14652 ft 371 kts 113°
2026-05-05 14:58 25.05608 55.45946 14859 ft 375 kts 112°
2026-05-05 14:59 25.04572 55.48671 15018 ft 395 kts 112°
2026-05-05 14:59 25.03483 55.51516 15364 ft 407 kts 113°
2026-05-05 14:59 25.02371 55.54402 15946 ft 412 kts 113°
2026-05-05 14:59 25.01142 55.57274 16558 ft 417 kts 119°
2026-05-05 15:00 24.99632 55.60020 17154 ft 421 kts 122°
2026-05-05 15:00 24.98590 55.61825 17630 ft 421 kts 122°
2026-05-05 15:00 24.96526 55.65460 18741 ft 414 kts 124°
2026-05-05 15:00 24.94541 55.67797 18951 ft 426 kts 146°
2026-05-05 15:01 24.91868 55.69227 19339 ft 431 kts 165°
2026-05-05 15:01 24.88985 55.69749 19808 ft 433 kts 181°
2026-05-05 15:01 24.85952 55.69658 20133 ft 439 kts 184°
2026-05-05 15:01 24.82888 55.69477 20588 ft 445 kts 185°
2026-05-05 15:02 24.80785 55.69338 20888 ft 449 kts 185°
2026-05-05 15:02 24.76614 55.69064 21504 ft 455 kts 185°
2026-05-05 15:02 24.73443 55.68871 22049 ft 458 kts 184°
2026-05-05 15:02 24.70252 55.68691 22579 ft 461 kts 184°
2026-05-05 15:03 24.67039 55.68521 23065 ft 465 kts 184°
2026-05-05 15:03 24.63792 55.68356 23489 ft 469 kts 184°
2026-05-05 15:03 24.60529 55.68195 23916 ft 471 kts 184°
2026-05-05 15:03 24.57250 55.68038 24354 ft 472 kts 184°
2026-05-05 15:04 24.55067 55.67934 24630 ft 474 kts 184°
2026-05-05 15:04 24.51758 55.67774 25023 ft 476 kts 185°
2026-05-05 15:04 24.48439 55.67610 25403 ft 479 kts 185°
2026-05-05 15:04 24.45107 55.67446 25787 ft 481 kts 185°
2026-05-05 15:05 24.38385 55.67114 26530 ft 486 kts 185°
2026-05-05 15:05 24.33896 55.66894 27016 ft 489 kts 185°
2026-05-05 15:05 24.31604 55.66782 27267 ft 490 kts 185°
2026-05-05 15:06 24.28188 55.66614 27606 ft 492 kts 185°
2026-05-05 15:06 24.24760 55.66447 27954 ft 494 kts 185°
2026-05-05 15:06 24.21313 55.66278 28279 ft 496 kts 185°
2026-05-05 15:06 24.17855 55.66109 28595 ft 498 kts 186°
2026-05-05 15:07 24.14431 55.65942 28870 ft 500 kts 186°
2026-05-05 15:07 24.10942 55.65772 29162 ft 502 kts 186°
2026-05-05 15:07 24.07446 55.65602 29540 ft 501 kts 186°
2026-05-05 15:07 24.03976 55.65434 29974 ft 499 kts 186°
2026-05-05 15:08 24.00501 55.65266 30347 ft 497 kts 186°
2026-05-05 15:08 23.97052 55.65099 30689 ft 497 kts 186°
2026-05-05 15:08 23.93593 55.64930 31016 ft 497 kts 186°
2026-05-05 15:08 23.90139 55.64762 31331 ft 496 kts 186°
2026-05-05 15:09 23.86696 55.64595 31675 ft 495 kts 186°
2026-05-05 15:09 23.83260 55.64427 32003 ft 494 kts 186°
2026-05-05 15:09 23.79818 55.64260 32316 ft 494 kts 186°
2026-05-05 15:09 23.76393 55.64094 32629 ft 494 kts 186°
2026-05-05 15:10 23.72950 55.63927 32934 ft 493 kts 186°
2026-05-05 15:10 23.69528 55.63761 33249 ft 492 kts 186°
2026-05-05 15:10 23.66107 55.63595 33575 ft 491 kts 186°
2026-05-05 15:10 23.62685 55.63429 33709 ft 495 kts 186°
2026-05-05 15:11 23.59235 55.63261 33755 ft 497 kts 186°
2026-05-05 15:11 23.52280 55.62923 33764 ft 502 kts 186°
2026-05-05 15:12 23.45292 55.62586 33763 ft 503 kts 186°
2026-05-05 15:12 23.38289 55.62249 33755 ft 504 kts 185°
2026-05-05 15:13 23.31328 55.61914 33756 ft 503 kts 185°
2026-05-05 15:13 23.24344 55.61579 33754 ft 501 kts 185°
2026-05-05 15:14 23.17391 55.61244 33751 ft 500 kts 185°
2026-05-05 15:14 23.10458 55.60911 33748 ft 498 kts 186°
2026-05-05 15:14 23.07071 55.60372 33744 ft 488 kts 201°
2026-05-05 15:15 23.04081 55.58744 33748 ft 480 kts 220°
2026-05-05 15:15 23.01657 55.56276 33763 ft 476 kts 232°
2026-05-05 15:15 22.99747 55.53357 33747 ft 475 kts 243°
2026-05-05 15:16 22.97135 55.46788 33748 ft 476 kts 250°
2026-05-05 15:16 22.94727 55.40067 33749 ft 479 kts 250°
2026-05-05 15:17 22.92263 55.33331 33742 ft 481 kts 249°
2026-05-05 15:17 22.89736 55.26599 33739 ft 482 kts 249°
2026-05-05 15:18 22.87187 55.19883 33735 ft 481 kts 249°
2026-05-05 15:18 22.84643 55.13195 33734 ft 479 kts 249°
2026-05-05 15:19 22.82118 55.06557 33729 ft 478 kts 249°
2026-05-05 15:19 22.79587 54.99908 33728 ft 477 kts 249°
2026-05-05 15:20 22.77061 54.93279 33723 ft 476 kts 249°
2026-05-05 15:20 22.74534 54.86660 33722 ft 476 kts 249°
2026-05-05 15:21 22.71999 54.80029 33724 ft 476 kts 248°
2026-05-05 15:21 22.69464 54.73407 33729 ft 476 kts 248°
2026-05-05 15:22 22.66919 54.66768 33730 ft 477 kts 248°
2026-05-05 15:22 22.64371 54.60135 33728 ft 477 kts 248°
2026-05-05 15:23 22.61815 54.53488 33726 ft 478 kts 248°
2026-05-05 15:23 22.59261 54.46855 33724 ft 478 kts 248°
2026-05-05 15:24 22.56717 54.40258 33732 ft 477 kts 248°
2026-05-05 15:24 22.54159 54.33634 33723 ft 477 kts 248°
2026-05-05 15:25 22.51601 54.27020 33724 ft 476 kts 248°
2026-05-05 15:25 22.49042 54.20413 33727 ft 476 kts 248°
2026-05-05 15:26 22.46485 54.13820 33728 ft 476 kts 248°
2026-05-05 15:26 22.43924 54.07224 33728 ft 475 kts 248°
2026-05-05 15:27 22.41363 54.00640 33731 ft 475 kts 248°
2026-05-05 15:27 22.38797 53.94052 33728 ft 475 kts 248°
2026-05-05 15:28 22.36232 53.87476 33728 ft 475 kts 248°
2026-05-05 15:28 22.33680 53.80944 33733 ft 474 kts 248°
2026-05-05 15:29 22.31110 53.74371 33731 ft 474 kts 248°
2026-05-05 15:29 22.28537 53.67801 33726 ft 474 kts 248°
2026-05-05 15:30 22.25839 53.60923 33728 ft 474 kts 248°
2026-05-05 15:30 22.23390 53.54689 33728 ft 474 kts 248°
2026-05-05 15:31 22.20814 53.48139 33729 ft 474 kts 248°
2026-05-05 15:31 22.18238 53.41600 33727 ft 474 kts 248°
2026-05-05 15:32 22.15656 53.35050 33726 ft 473 kts 248°
2026-05-05 15:32 22.13079 53.28525 33725 ft 473 kts 248°
2026-05-05 15:33 22.10504 53.22014 33724 ft 473 kts 248°
2026-05-05 15:33 22.07932 53.15521 33728 ft 473 kts 248°
2026-05-05 15:34 22.05345 53.08996 33725 ft 473 kts 248°
2026-05-05 15:34 22.02757 53.02479 33727 ft 472 kts 247°
2026-05-05 15:35 22.00167 52.95963 33727 ft 472 kts 247°
2026-05-05 15:35 21.97588 52.89485 33726 ft 472 kts 247°
2026-05-05 15:36 21.94996 52.82981 33727 ft 472 kts 247°
2026-05-05 15:36 21.92401 52.76479 33725 ft 471 kts 248°
2026-05-05 15:37 21.90897 52.69654 33745 ft 470 kts 265°
2026-05-05 15:37 21.91287 52.62626 33732 ft 472 kts 279°
2026-05-05 15:38 21.92608 52.55727 33733 ft 473 kts 280°
2026-05-05 15:38 21.93968 52.48748 33735 ft 474 kts 280°
2026-05-05 15:39 21.95275 52.41792 33732 ft 475 kts 279°
2026-05-05 15:39 21.96553 52.34823 33737 ft 475 kts 279°
2026-05-05 15:40 21.97823 52.27844 33734 ft 475 kts 279°
2026-05-05 15:40 21.99089 52.20872 33734 ft 474 kts 279°
2026-05-05 15:41 22.00356 52.13882 33738 ft 474 kts 279°
2026-05-05 15:41 22.01619 52.06904 33738 ft 473 kts 279°
2026-05-05 15:42 22.02868 51.99987 33737 ft 473 kts 279°
2026-05-05 15:42 22.04121 51.93030 33736 ft 472 kts 279°
2026-05-05 15:43 22.05367 51.86095 33737 ft 472 kts 279°
2026-05-05 15:43 22.06196 51.81467 33739 ft 472 kts 279°
2026-05-05 15:44 22.07855 51.72192 33741 ft 473 kts 279°
2026-05-05 15:44 22.09094 51.65243 33738 ft 473 kts 279°
2026-05-05 15:45 22.10331 51.58283 33744 ft 473 kts 279°
2026-05-05 15:45 22.11568 51.51309 33742 ft 473 kts 279°
2026-05-05 15:46 22.12801 51.44341 33745 ft 474 kts 279°
2026-05-05 15:46 22.14033 51.37358 33742 ft 474 kts 279°
2026-05-05 15:47 22.15259 51.30394 33742 ft 474 kts 279°
2026-05-05 15:47 22.16485 51.23404 33746 ft 474 kts 279°
2026-05-05 15:48 22.17712 51.16399 33747 ft 474 kts 279°
2026-05-05 15:48 22.18935 51.09395 33740 ft 474 kts 279°
2026-05-05 15:49 22.20153 51.02404 33745 ft 474 kts 279°
2026-05-05 15:49 22.21165 50.96577 33746 ft 474 kts 279°
2026-05-05 15:50 22.22372 50.89611 33748 ft 474 kts 279°
2026-05-05 15:50 22.23585 50.82598 33750 ft 474 kts 278°
2026-05-05 15:51 22.24793 50.75591 33747 ft 475 kts 278°
2026-05-05 15:51 22.25994 50.68606 33750 ft 475 kts 278°
2026-05-05 15:52 22.27193 50.61612 33752 ft 475 kts 278°
2026-05-05 15:52 22.28395 50.54586 33751 ft 475 kts 278°
2026-05-05 15:53 22.29589 50.47584 33753 ft 475 kts 278°
2026-05-05 15:53 22.30780 50.40585 33746 ft 475 kts 278°
2026-05-05 15:54 22.31974 50.33548 33746 ft 475 kts 278°
2026-05-05 15:54 22.33159 50.26546 33748 ft 475 kts 278°
2026-05-05 15:55 22.34346 50.19511 33749 ft 475 kts 278°
2026-05-05 15:55 22.35527 50.12496 33748 ft 475 kts 278°
2026-05-05 15:56 22.36700 50.05503 33748 ft 475 kts 278°
2026-05-05 15:56 22.37879 49.98459 33747 ft 475 kts 278°
2026-05-05 15:57 22.39051 49.91435 33749 ft 474 kts 278°
2026-05-05 15:57 22.40217 49.84435 33744 ft 474 kts 278°
2026-05-05 15:58 22.41381 49.77418 33746 ft 473 kts 278°
2026-05-05 15:58 22.42534 49.70455 33749 ft 473 kts 278°
2026-05-05 15:59 22.43686 49.63474 33747 ft 472 kts 278°
2026-05-05 15:59 22.44838 49.56481 33745 ft 472 kts 278°
2026-05-05 16:00 22.45985 49.49492 33742 ft 471 kts 278°
2026-05-05 16:00 22.47123 49.42539 33749 ft 471 kts 278°
2026-05-05 16:01 22.48262 49.35562 33743 ft 470 kts 278°
2026-05-05 16:01 22.49400 49.28573 33741 ft 470 kts 278°
2026-05-05 16:02 22.50527 49.21629 33739 ft 470 kts 278°
2026-05-05 16:02 22.51653 49.14671 33744 ft 469 kts 278°
2026-05-05 16:03 22.52772 49.07742 33743 ft 469 kts 278°
2026-05-05 16:03 22.53889 49.00799 33739 ft 469 kts 278°
2026-05-05 16:04 22.55004 48.93856 33731 ft 469 kts 278°
2026-05-05 16:04 22.56114 48.86918 33737 ft 468 kts 278°
2026-05-05 16:05 22.57221 48.79987 33738 ft 468 kts 278°
2026-05-05 16:05 22.58326 48.73042 33747 ft 468 kts 277°
2026-05-05 16:06 22.59431 48.66076 33735 ft 468 kts 277°
2026-05-05 16:06 22.60524 48.59171 33743 ft 468 kts 277°
2026-05-05 16:07 22.61616 48.52246 33741 ft 468 kts 277°
2026-05-05 16:07 22.62711 48.45288 33734 ft 468 kts 277°
2026-05-05 16:08 22.63800 48.38350 33742 ft 468 kts 277°
2026-05-05 16:08 22.64881 48.31434 33743 ft 468 kts 277°
2026-05-05 16:09 22.65966 48.24477 33740 ft 468 kts 277°
2026-05-05 16:09 22.67050 48.17508 33747 ft 468 kts 277°
2026-05-05 16:10 22.68123 48.10589 33739 ft 468 kts 277°
2026-05-05 16:10 22.69178 48.03648 33742 ft 467 kts 275°
2026-05-05 16:11 22.69824 47.96637 33747 ft 466 kts 273°
2026-05-05 16:12 22.70943 47.82683 33747 ft 465 kts 273°
2026-05-05 16:13 22.72382 47.65265 33758 ft 465 kts 273°
2026-05-05 16:13 22.72956 47.58272 33772 ft 465 kts 273°
2026-05-05 16:14 22.74090 47.44315 33786 ft 464 kts 273°
2026-05-05 16:15 22.75207 47.30425 33781 ft 463 kts 273°
2026-05-05 16:16 22.76312 47.16539 33791 ft 463 kts 273°
2026-05-05 16:17 22.77141 47.06107 33797 ft 462 kts 273°
2026-05-05 16:18 22.77961 46.95722 33804 ft 462 kts 273°
2026-05-05 16:19 22.78777 46.85291 33811 ft 461 kts 273°
2026-05-05 16:19 22.79580 46.74947 33819 ft 461 kts 272°
2026-05-05 16:20 22.80641 46.61131 33829 ft 460 kts 272°
2026-05-05 16:22 22.81949 46.43876 33845 ft 460 kts 272°
2026-05-05 16:23 22.82979 46.30064 33846 ft 459 kts 272°
2026-05-05 16:23 22.83743 46.19692 33850 ft 459 kts 272°
2026-05-05 16:24 22.84246 46.12807 33838 ft 459 kts 272°
2026-05-05 16:25 22.84996 46.02475 33832 ft 459 kts 272°
2026-05-05 16:25 22.85742 45.92102 33829 ft 458 kts 272°
2026-05-05 16:26 22.86719 45.78373 33824 ft 457 kts 272°
2026-05-05 16:27 22.87203 45.71500 33826 ft 457 kts 272°
2026-05-05 16:27 22.87685 45.64625 33827 ft 456 kts 272°
2026-05-05 16:28 22.88162 45.57779 33825 ft 456 kts 272°
2026-05-05 16:28 22.88635 45.50933 33829 ft 456 kts 272°
2026-05-05 16:29 22.89106 45.44084 33831 ft 457 kts 272°
2026-05-05 16:29 22.89577 45.37195 33829 ft 457 kts 272°
2026-05-05 16:30 22.90043 45.30331 33835 ft 457 kts 272°
2026-05-05 16:30 22.90507 45.23445 33830 ft 457 kts 271°
2026-05-05 16:31 22.90967 45.16586 33837 ft 457 kts 271°
2026-05-05 16:31 22.91427 45.09695 33839 ft 457 kts 271°
2026-05-05 16:32 22.91882 45.02811 33845 ft 456 kts 271°
2026-05-05 16:32 22.92334 44.95947 33853 ft 456 kts 271°
2026-05-05 16:33 22.92773 44.89118 33842 ft 456 kts 271°
2026-05-05 16:33 22.93216 44.82281 33856 ft 455 kts 271°
2026-05-05 16:34 22.93661 44.75431 33849 ft 455 kts 271°
2026-05-05 16:34 22.94238 44.68577 33853 ft 456 kts 276°
2026-05-05 16:35 22.95727 44.61860 33854 ft 461 kts 284°
2026-05-05 16:35 22.97786 44.55278 33860 ft 462 kts 284°
2026-05-05 16:36 22.99520 44.49766 33856 ft 462 kts 284°
2026-05-05 16:36 23.01572 44.43162 33863 ft 461 kts 284°
2026-05-05 16:37 23.03598 44.36583 33862 ft 461 kts 284°
2026-05-05 16:37 23.05621 44.29989 33863 ft 461 kts 284°
2026-05-05 16:38 23.07652 44.23362 33871 ft 460 kts 284°
2026-05-05 16:38 23.09661 44.16798 33879 ft 460 kts 284°
2026-05-05 16:39 23.11681 44.10185 33880 ft 459 kts 283°
2026-05-05 16:39 23.13683 44.03623 33873 ft 459 kts 283°
2026-05-05 16:40 23.15684 43.97053 33881 ft 458 kts 283°
2026-05-05 16:40 23.17693 43.90447 33892 ft 458 kts 283°
2026-05-05 16:41 23.19678 43.83908 33897 ft 457 kts 283°
2026-05-05 16:41 23.21668 43.77337 33903 ft 457 kts 283°
2026-05-05 16:42 23.23646 43.70801 33918 ft 457 kts 283°
2026-05-05 16:42 23.25636 43.64209 33922 ft 457 kts 283°
2026-05-05 16:43 23.27613 43.57655 33925 ft 457 kts 283°
2026-05-05 16:43 23.29588 43.51096 33933 ft 456 kts 283°
2026-05-05 16:44 23.31565 43.44520 33939 ft 456 kts 283°
2026-05-05 16:44 23.33522 43.37997 33946 ft 455 kts 283°
2026-05-05 16:45 23.35486 43.31438 33952 ft 454 kts 283°
2026-05-05 16:45 23.37436 43.24915 33958 ft 453 kts 283°
2026-05-05 16:46 23.39387 43.18379 33961 ft 453 kts 283°
2026-05-05 16:46 23.41327 43.11868 33966 ft 452 kts 283°
2026-05-05 16:47 23.43253 43.05383 33978 ft 452 kts 282°
2026-05-05 16:47 23.45185 42.98859 33964 ft 452 kts 282°
2026-05-05 16:48 23.47115 42.92335 33967 ft 452 kts 282°
2026-05-05 16:48 23.49044 42.85803 33967 ft 452 kts 282°
2026-05-05 16:49 23.50963 42.79291 33966 ft 452 kts 282°
2026-05-05 16:49 23.52878 42.72790 33958 ft 451 kts 282°
2026-05-05 16:50 23.54797 42.66277 33962 ft 451 kts 282°
2026-05-05 16:50 23.56701 42.59806 33962 ft 450 kts 282°
2026-05-05 16:51 23.58613 42.53292 33956 ft 449 kts 282°
2026-05-05 16:51 23.60506 42.46833 33956 ft 449 kts 282°
2026-05-05 16:52 23.62398 42.40365 33952 ft 448 kts 282°
2026-05-05 16:52 23.64293 42.33874 33953 ft 448 kts 282°
2026-05-05 16:53 23.66177 42.27413 33950 ft 447 kts 282°
2026-05-05 16:53 23.68049 42.20961 33952 ft 447 kts 282°
2026-05-05 16:54 23.69924 42.14481 33953 ft 447 kts 282°
2026-05-05 16:54 23.71796 42.08002 33947 ft 448 kts 282°
2026-05-05 16:55 23.73667 42.01521 33950 ft 448 kts 282°
2026-05-05 16:55 23.75525 41.95085 33940 ft 448 kts 282°
2026-05-05 16:56 23.77404 41.88584 33959 ft 448 kts 282°
2026-05-05 16:56 23.79272 41.82111 33966 ft 448 kts 281°
2026-05-05 16:57 23.81145 41.75606 33953 ft 447 kts 281°
2026-05-05 16:57 23.83001 41.69141 33958 ft 447 kts 281°
2026-05-05 16:58 23.84858 41.62659 33954 ft 446 kts 281°
2026-05-05 16:58 23.86704 41.56209 33960 ft 445 kts 281°
2026-05-05 16:59 23.88542 41.49750 33961 ft 444 kts 281°
2026-05-05 16:59 23.90369 41.43307 33956 ft 444 kts 281°
2026-05-05 17:00 23.92180 41.36916 33953 ft 443 kts 281°
2026-05-05 17:00 23.94007 41.30470 33964 ft 443 kts 281°
2026-05-05 17:01 23.95831 41.24035 33962 ft 443 kts 281°
2026-05-05 17:01 23.97652 41.17599 33959 ft 442 kts 281°
2026-05-05 17:02 23.99468 41.11168 33959 ft 442 kts 281°
2026-05-05 17:02 24.01280 41.04738 33961 ft 442 kts 281°
2026-05-05 17:03 24.03076 40.98355 33958 ft 442 kts 281°
2026-05-05 17:03 24.04881 40.91928 33950 ft 441 kts 281°
2026-05-05 17:04 24.06128 40.87483 33937 ft 440 kts 282°
2026-05-05 17:04 24.07855 40.81312 33950 ft 438 kts 282°
2026-05-05 17:05 24.09635 40.74949 33953 ft 437 kts 282°
2026-05-05 17:05 24.11413 40.68582 33951 ft 436 kts 282°
2026-05-05 17:06 24.13184 40.62226 33949 ft 436 kts 281°
2026-05-05 17:06 24.14946 40.55890 33942 ft 435 kts 281°
2026-05-05 17:07 24.17033 40.49640 33943 ft 440 kts 288°
2026-05-05 17:07 24.19867 40.43701 33944 ft 443 kts 291°
2026-05-05 17:08 24.22759 40.37734 33941 ft 443 kts 291°
2026-05-05 17:08 24.25631 40.31763 33943 ft 443 kts 291°
2026-05-05 17:09 24.28493 40.25780 33941 ft 442 kts 291°
2026-05-05 17:09 24.31345 40.19809 33942 ft 442 kts 291°
2026-05-05 17:10 24.34199 40.13826 33937 ft 443 kts 291°
2026-05-05 17:10 24.37051 40.07840 33942 ft 443 kts 290°
2026-05-05 17:11 24.39898 40.01859 33927 ft 442 kts 290°
2026-05-05 17:11 24.42744 39.95871 33930 ft 442 kts 290°
2026-05-05 17:12 24.45583 39.89890 33942 ft 442 kts 290°
2026-05-05 17:12 24.48418 39.83910 33947 ft 441 kts 290°
2026-05-05 17:13 24.51246 39.77938 33945 ft 441 kts 290°
2026-05-05 17:13 24.54517 39.72180 33948 ft 452 kts 301°
2026-05-05 17:14 24.58874 39.67171 33945 ft 463 kts 311°
2026-05-05 17:14 24.64099 39.62907 33945 ft 469 kts 315°
2026-05-05 17:15 24.69425 39.58759 33944 ft 469 kts 315°
2026-05-05 17:15 24.74735 39.54571 33941 ft 469 kts 315°
2026-05-05 17:16 24.80021 39.50350 33947 ft 469 kts 315°
2026-05-05 17:16 24.85307 39.46111 33957 ft 470 kts 314°
2026-05-05 17:17 24.90562 39.41892 33948 ft 471 kts 314°
2026-05-05 17:17 24.95866 39.37632 33952 ft 472 kts 314°
2026-05-05 17:18 25.01179 39.33363 33954 ft 473 kts 314°
2026-05-05 17:18 25.06496 39.29086 33955 ft 473 kts 314°
2026-05-05 17:19 25.11820 39.24795 33954 ft 473 kts 314°
2026-05-05 17:19 25.17135 39.20511 33959 ft 473 kts 314°
2026-05-05 17:20 25.21963 39.15764 33963 ft 457 kts 303°
2026-05-05 17:20 25.25863 39.10339 33961 ft 446 kts 295°
2026-05-05 17:21 25.29209 39.04599 33951 ft 445 kts 294°
2026-05-05 17:22 25.31382 39.00828 33955 ft 445 kts 294°
2026-05-05 17:23 25.32472 38.98941 33949 ft 445 kts 294°
2026-05-05 17:23 25.35813 38.93186 33954 ft 445 kts 294°
2026-05-05 17:24 25.37846 38.89694 33953 ft 446 kts 294°
2026-05-05 17:24 25.41216 38.83913 33948 ft 447 kts 294°
2026-05-05 17:25 25.44591 38.78121 33939 ft 448 kts 294°
2026-05-05 17:25 25.47965 38.72323 33942 ft 448 kts 294°
2026-05-05 17:26 25.51336 38.66522 33928 ft 448 kts 294°
2026-05-05 17:26 25.54707 38.60711 33923 ft 449 kts 294°
2026-05-05 17:27 25.58089 38.54873 33920 ft 450 kts 294°
2026-05-05 17:27 25.61475 38.49024 33921 ft 451 kts 294°
2026-05-05 17:28 25.64862 38.43165 33918 ft 451 kts 294°
2026-05-05 17:28 25.68225 38.37341 33917 ft 451 kts 294°
2026-05-05 17:29 25.71600 38.31490 33911 ft 450 kts 294°
2026-05-05 17:29 25.74970 38.25638 33907 ft 449 kts 294°
2026-05-05 17:30 25.78325 38.19805 33897 ft 447 kts 294°
2026-05-05 17:30 25.81664 38.13994 33900 ft 446 kts 294°
2026-05-05 17:31 25.84990 38.08196 33906 ft 445 kts 294°
2026-05-05 17:31 25.88297 38.02419 33922 ft 446 kts 294°
2026-05-05 17:32 25.91629 37.96597 33932 ft 447 kts 294°
2026-05-05 17:32 25.94972 37.90749 33924 ft 449 kts 294°
2026-05-05 17:33 25.98258 37.84845 33929 ft 446 kts 289°
2026-05-05 17:33 26.00528 37.78533 33938 ft 437 kts 280°
2026-05-05 17:34 26.01798 37.71995 33952 ft 431 kts 272°
2026-05-05 17:34 26.02647 37.65382 33926 ft 432 kts 272°
2026-05-05 17:35 26.03507 37.58823 33944 ft 432 kts 273°
2026-05-05 17:35 26.04401 37.52217 33941 ft 432 kts 273°
2026-05-05 17:36 26.05291 37.45612 33950 ft 432 kts 273°
2026-05-05 17:36 26.06177 37.38988 33946 ft 433 kts 273°
2026-05-05 17:37 26.07062 37.32351 33949 ft 433 kts 273°
2026-05-05 17:37 26.07942 37.25724 33946 ft 433 kts 272°
2026-05-05 17:38 26.08821 37.19085 33938 ft 433 kts 273°
2026-05-05 17:38 26.09692 37.12492 33932 ft 433 kts 273°
2026-05-05 17:39 26.10569 37.05831 33933 ft 433 kts 272°
2026-05-05 17:39 26.11433 36.99219 33933 ft 433 kts 272°
2026-05-05 17:40 26.12295 36.92614 33932 ft 433 kts 272°
2026-05-05 17:40 26.13160 36.85966 33928 ft 433 kts 272°
2026-05-05 17:41 26.14022 36.79315 33922 ft 433 kts 272°
2026-05-05 17:41 26.14874 36.72714 33916 ft 433 kts 272°
2026-05-05 17:42 26.15728 36.66068 33923 ft 433 kts 272°
2026-05-05 17:42 26.16574 36.59477 33917 ft 433 kts 272°
2026-05-05 17:43 26.17582 36.52845 33905 ft 438 kts 281°
2026-05-05 17:43 26.20224 36.46609 33914 ft 453 kts 294°
2026-05-05 17:43 26.22098 36.43789 33905 ft 465 kts 304°
2026-05-05 17:44 26.24357 36.41137 33922 ft 468 kts 306°
2026-05-05 17:44 26.28952 36.35990 33918 ft 469 kts 307°
2026-05-05 17:45 26.33542 36.30816 33923 ft 469 kts 306°
2026-05-05 17:45 26.38090 36.25595 33925 ft 469 kts 306°
2026-05-05 17:46 26.42597 36.20382 33923 ft 469 kts 306°
2026-05-05 17:46 26.47140 36.15120 33924 ft 469 kts 306°
2026-05-05 17:47 26.51666 36.09873 33938 ft 469 kts 306°
2026-05-05 17:47 26.53909 36.07269 34108 ft 471 kts 306°
2026-05-05 17:47 26.56171 36.04646 34455 ft 468 kts 306°
2026-05-05 17:47 26.58422 36.02036 34821 ft 466 kts 305°
2026-05-05 17:48 26.60666 35.99432 35149 ft 464 kts 305°
2026-05-05 17:48 26.62903 35.96831 35426 ft 463 kts 305°
2026-05-05 17:48 26.65136 35.94231 35686 ft 463 kts 304°
2026-05-05 17:48 26.67366 35.91633 35852 ft 463 kts 304°
2026-05-05 17:49 26.69602 35.89026 35903 ft 464 kts 304°
2026-05-05 17:49 26.74039 35.83854 35926 ft 462 kts 304°
2026-05-05 17:50 26.78503 35.78645 35933 ft 460 kts 304°
2026-05-05 17:50 26.82924 35.73480 35934 ft 459 kts 304°
2026-05-05 17:51 26.87340 35.68315 35939 ft 459 kts 304°
2026-05-05 17:51 26.91758 35.63141 35937 ft 460 kts 304°
2026-05-05 17:52 26.96177 35.57957 35943 ft 460 kts 304°
2026-05-05 17:52 27.00605 35.52757 35949 ft 461 kts 305°
2026-05-05 17:53 27.05014 35.47575 35945 ft 462 kts 305°
2026-05-05 17:53 27.09447 35.42358 35946 ft 462 kts 305°
2026-05-05 17:54 27.13890 35.37123 35952 ft 462 kts 305°
2026-05-05 17:54 27.18320 35.31897 35945 ft 462 kts 305°
2026-05-05 17:55 27.22744 35.26670 35946 ft 461 kts 305°
2026-05-05 17:55 27.27168 35.21438 35950 ft 461 kts 305°
2026-05-05 17:56 27.31550 35.16247 35948 ft 461 kts 305°
2026-05-05 17:56 27.35960 35.11019 35949 ft 460 kts 305°
2026-05-05 17:57 27.40364 35.05790 35953 ft 460 kts 305°
2026-05-05 17:57 27.44769 35.00552 35955 ft 459 kts 305°
2026-05-05 17:58 27.49162 34.95323 35953 ft 459 kts 305°
2026-05-05 17:58 27.53641 34.90227 35953 ft 462 kts 308°
2026-05-05 17:59 27.58349 34.85282 35953 ft 463 kts 309°
2026-05-05 17:59 27.63066 34.80352 35954 ft 462 kts 309°
2026-05-05 18:00 27.67768 34.75396 35958 ft 462 kts 309°
2026-05-05 18:00 27.72460 34.70426 35960 ft 462 kts 309°
2026-05-05 18:01 27.76508 34.66130 35961 ft 462 kts 309°
2026-05-05 18:01 27.81198 34.61150 35959 ft 462 kts 309°
2026-05-05 18:02 27.85890 34.56163 35970 ft 462 kts 309°
2026-05-05 18:02 27.90547 34.51206 35976 ft 463 kts 309°
2026-05-05 18:03 27.95245 34.46198 35973 ft 463 kts 309°
2026-05-05 18:03 27.99895 34.41161 35974 ft 460 kts 306°
2026-05-05 18:04 28.03971 34.35696 35981 ft 455 kts 302°
2026-05-05 18:04 28.07934 34.30142 35965 ft 455 kts 302°
2026-05-05 18:05 28.11942 34.24552 35978 ft 455 kts 302°
2026-05-05 18:05 28.15923 34.19023 35990 ft 455 kts 302°
2026-05-05 18:06 28.19924 34.13467 36005 ft 455 kts 302°
2026-05-05 18:06 28.23937 34.07897 36012 ft 455 kts 302°
2026-05-05 18:07 28.27930 34.02336 36004 ft 453 kts 303°
2026-05-05 18:07 28.31895 33.96810 36016 ft 454 kts 302°
2026-05-05 18:08 28.35882 33.91237 36017 ft 455 kts 302°
2026-05-05 18:08 28.39895 33.85629 36011 ft 456 kts 302°
2026-05-05 18:09 28.43883 33.80049 36013 ft 456 kts 302°
2026-05-05 18:09 28.47871 33.74461 36010 ft 456 kts 302°
2026-05-05 18:10 28.51869 33.68855 36007 ft 454 kts 302°
2026-05-05 18:10 28.55819 33.63311 35994 ft 451 kts 302°
2026-05-05 18:11 28.59760 33.57778 36059 ft 450 kts 302°
2026-05-05 18:11 28.63699 33.52248 36038 ft 452 kts 302°
2026-05-05 18:12 28.67649 33.46679 36040 ft 453 kts 302°
2026-05-05 18:12 28.70951 33.42018 36033 ft 453 kts 302°
2026-05-05 18:13 28.74906 33.36430 36041 ft 453 kts 302°
2026-05-05 18:13 28.78865 33.30827 36042 ft 452 kts 302°
2026-05-05 18:14 28.82798 33.25254 36044 ft 452 kts 302°
2026-05-05 18:14 28.86725 33.19682 36047 ft 451 kts 302°
2026-05-05 18:15 28.90649 33.14106 36042 ft 451 kts 302°
2026-05-05 18:15 28.94569 33.08528 36041 ft 450 kts 302°
2026-05-05 18:16 28.98490 33.02942 36045 ft 449 kts 302°
2026-05-05 18:16 29.02372 32.97404 36046 ft 449 kts 302°
2026-05-05 18:17 29.06282 32.91817 36044 ft 448 kts 302°
2026-05-05 18:17 29.10181 32.86240 36033 ft 448 kts 302°
2026-05-05 18:18 29.14043 32.80707 36035 ft 448 kts 302°
2026-05-05 18:18 29.17931 32.75130 36040 ft 447 kts 302°
2026-05-05 18:19 29.21793 32.69582 36044 ft 447 kts 302°
2026-05-05 18:19 29.25667 32.64009 36047 ft 447 kts 303°
2026-05-05 18:20 29.29549 32.58414 36046 ft 447 kts 302°
2026-05-05 18:20 29.33396 32.52819 36052 ft 446 kts 302°
2026-05-05 18:21 29.37222 32.47240 36061 ft 446 kts 302°
2026-05-05 18:21 29.41045 32.41654 36063 ft 446 kts 302°
2026-05-05 18:22 29.44872 32.36060 36060 ft 446 kts 302°
2026-05-05 18:22 29.48681 32.30488 36066 ft 446 kts 302°
2026-05-05 18:23 29.52525 32.24855 36065 ft 446 kts 302°
2026-05-05 18:23 29.56322 32.19285 36059 ft 445 kts 302°
2026-05-05 18:24 29.60144 32.13670 36073 ft 445 kts 302°
2026-05-05 18:24 29.63950 32.08071 36065 ft 444 kts 302°
2026-05-05 18:25 29.67746 32.02477 36077 ft 444 kts 302°
2026-05-05 18:25 29.71532 31.96890 36084 ft 443 kts 303°
2026-05-05 18:26 29.75328 31.91281 36084 ft 443 kts 302°
2026-05-05 18:26 29.79095 31.85695 36078 ft 443 kts 302°
2026-05-05 18:27 29.82768 31.79984 36080 ft 442 kts 301°
2026-05-05 18:27 29.86386 31.74298 36083 ft 441 kts 301°
2026-05-05 18:28 29.91857 31.65752 36078 ft 441 kts 301°
2026-05-05 18:28 29.95515 31.60093 36088 ft 441 kts 302°
2026-05-05 18:29 29.99161 31.54463 36089 ft 440 kts 302°
2026-05-05 18:29 30.02820 31.48797 36081 ft 440 kts 302°
2026-05-05 18:30 30.06474 31.43127 36082 ft 440 kts 302°
2026-05-05 18:30 30.10352 31.37617 36075 ft 445 kts 309°
2026-05-05 18:31 30.14884 31.32700 36083 ft 447 kts 312°
2026-05-05 18:31 30.19468 31.27834 36077 ft 447 kts 311°
2026-05-05 18:32 30.24026 31.22962 36081 ft 447 kts 311°
2026-05-05 18:32 30.28584 31.18061 36081 ft 446 kts 311°
2026-05-05 18:33 30.33118 31.13171 36086 ft 446 kts 311°
2026-05-05 18:33 30.37644 31.08284 36086 ft 445 kts 311°
2026-05-05 18:34 30.42146 31.03419 36085 ft 445 kts 311°
2026-05-05 18:34 30.46694 30.98496 36096 ft 444 kts 311°
2026-05-05 18:35 30.51178 30.93636 36097 ft 444 kts 311°
2026-05-05 18:35 30.55686 30.88745 36096 ft 443 kts 311°
2026-05-05 18:36 30.60212 30.83827 36097 ft 443 kts 311°
2026-05-05 18:36 30.64679 30.78966 36098 ft 442 kts 311°
2026-05-05 18:37 30.69166 30.74077 36095 ft 442 kts 311°
2026-05-05 18:37 30.73644 30.69191 36101 ft 442 kts 311°
2026-05-05 18:38 30.78122 30.64300 36099 ft 441 kts 311°
2026-05-05 18:38 30.82593 30.59409 36101 ft 441 kts 311°
2026-05-05 18:39 30.87056 30.54519 36102 ft 440 kts 311°
2026-05-05 18:39 30.91517 30.49626 36104 ft 440 kts 311°
2026-05-05 18:40 30.95972 30.44732 36100 ft 440 kts 311°
2026-05-05 18:40 31.00393 30.39869 36099 ft 440 kts 311°
2026-05-05 18:41 31.04843 30.34969 36099 ft 440 kts 311°
2026-05-05 18:41 31.08607 30.29487 36116 ft 431 kts 298°
2026-05-05 18:42 31.11187 30.23218 36104 ft 427 kts 286°
2026-05-05 18:42 31.12946 30.16611 36102 ft 427 kts 285°
2026-05-05 18:43 31.14704 30.09990 36105 ft 428 kts 286°
2026-05-05 18:43 31.16503 30.03366 36102 ft 428 kts 286°
2026-05-05 18:44 31.18568 29.96835 36108 ft 430 kts 293°
2026-05-05 18:44 31.21464 29.90691 36104 ft 433 kts 301°
2026-05-05 18:45 31.24992 29.84958 36112 ft 435 kts 303°
2026-05-05 18:45 31.28570 29.79311 36109 ft 435 kts 303°
2026-05-05 18:46 31.32157 29.73602 36110 ft 435 kts 303°
2026-05-05 18:46 31.35732 29.67865 36107 ft 436 kts 303°
2026-05-05 18:47 31.39294 29.62130 36106 ft 435 kts 303°
2026-05-05 18:47 31.42854 29.56389 36110 ft 435 kts 303°
2026-05-05 18:48 31.46407 29.50652 36110 ft 435 kts 303°
2026-05-05 18:48 31.49939 29.44943 36108 ft 435 kts 303°
2026-05-05 18:49 31.53483 29.39203 36109 ft 435 kts 303°
2026-05-05 18:49 31.57024 29.33461 36109 ft 434 kts 303°
2026-05-05 18:50 31.60566 29.27706 36116 ft 434 kts 303°
2026-05-05 18:50 31.64091 29.21952 36103 ft 434 kts 303°
2026-05-05 18:51 31.67616 29.16192 36107 ft 435 kts 303°
2026-05-05 18:51 31.71154 29.10432 36117 ft 435 kts 306°
2026-05-05 18:52 31.75242 29.05160 36125 ft 438 kts 314°
2026-05-05 18:52 31.79925 29.00548 36109 ft 440 kts 318°
2026-05-05 18:53 31.84685 28.96016 36114 ft 440 kts 318°
2026-05-05 18:53 31.89436 28.91468 36118 ft 441 kts 317°
2026-05-05 18:54 31.94183 28.86894 36116 ft 441 kts 317°
2026-05-05 18:54 31.98924 28.82309 36111 ft 441 kts 317°
2026-05-05 18:55 32.03636 28.77744 36111 ft 441 kts 318°
2026-05-05 18:55 32.08370 28.73151 36117 ft 441 kts 318°
2026-05-05 18:56 32.13102 28.68555 36110 ft 441 kts 318°
2026-05-05 18:56 32.17829 28.63958 36111 ft 440 kts 318°
2026-05-05 18:57 32.22555 28.59355 36112 ft 440 kts 318°
2026-05-05 18:57 32.27269 28.54758 36114 ft 439 kts 318°
2026-05-05 18:58 32.31980 28.50157 36112 ft 439 kts 318°
2026-05-05 18:58 32.36689 28.45552 36114 ft 439 kts 318°
2026-05-05 18:59 32.40594 28.41727 36114 ft 438 kts 318°
2026-05-05 18:59 32.45294 28.37119 36113 ft 438 kts 318°
2026-05-05 19:00 32.49985 28.32513 36112 ft 438 kts 318°
2026-05-05 19:00 32.54677 28.27900 36109 ft 438 kts 318°
2026-05-05 19:01 32.59361 28.23288 36109 ft 437 kts 318°
2026-05-05 19:01 32.64036 28.18677 36113 ft 437 kts 318°
2026-05-05 19:02 32.68682 28.14090 36112 ft 437 kts 318°
2026-05-05 19:02 32.73355 28.09469 36117 ft 437 kts 318°
2026-05-05 19:03 32.78029 28.04841 36107 ft 437 kts 318°
2026-05-05 19:03 32.82691 28.00218 36107 ft 437 kts 318°
2026-05-05 19:04 32.87352 27.95589 36109 ft 436 kts 318°
2026-05-05 19:04 32.92008 27.90959 36105 ft 436 kts 318°
2026-05-05 19:05 32.96665 27.86322 36110 ft 436 kts 318°
2026-05-05 19:05 33.01311 27.81689 36103 ft 436 kts 318°
2026-05-05 19:06 33.05925 27.77081 36106 ft 435 kts 318°
2026-05-05 19:06 33.10562 27.72443 36103 ft 435 kts 318°
2026-05-05 19:07 33.15198 27.67801 36106 ft 434 kts 318°
2026-05-05 19:07 33.19829 27.63156 36107 ft 434 kts 318°
2026-05-05 19:08 33.24444 27.58520 36104 ft 434 kts 318°
2026-05-05 19:08 33.29039 27.53899 36108 ft 434 kts 318°
2026-05-05 19:09 33.33652 27.49252 36099 ft 433 kts 318°
2026-05-05 19:09 33.38273 27.44591 36108 ft 433 kts 318°
2026-05-05 19:10 33.42864 27.39953 36105 ft 433 kts 318°
2026-05-05 19:10 33.47450 27.35314 36108 ft 432 kts 318°
2026-05-05 19:11 33.52042 27.30662 36105 ft 432 kts 318°
2026-05-05 19:11 33.56618 27.26020 36090 ft 432 kts 318°
2026-05-05 19:12 33.61223 27.21341 36093 ft 431 kts 318°
2026-05-05 19:12 33.65793 27.16691 36100 ft 431 kts 318°
2026-05-05 19:13 33.70375 27.12022 36111 ft 431 kts 318°
2026-05-05 19:13 33.74924 27.07381 36098 ft 431 kts 318°
2026-05-05 19:14 33.79464 27.02741 36095 ft 431 kts 318°
2026-05-05 19:14 33.84046 26.98051 36096 ft 430 kts 318°
2026-05-05 19:15 33.88611 26.93373 36099 ft 430 kts 318°
2026-05-05 19:15 33.93163 26.88699 36102 ft 430 kts 318°
2026-05-05 19:16 33.97701 26.84036 36101 ft 430 kts 318°
2026-05-05 19:16 34.02099 26.79160 36101 ft 429 kts 314°
2026-05-05 19:17 34.06263 26.74011 36095 ft 430 kts 313°
2026-05-05 19:17 34.10418 26.68842 36100 ft 430 kts 313°
2026-05-05 19:18 34.14608 26.63641 36099 ft 430 kts 313°
2026-05-05 19:18 34.18763 26.58488 36098 ft 429 kts 313°
2026-05-05 19:19 34.22921 26.53330 36098 ft 429 kts 313°
2026-05-05 19:19 34.27073 26.48171 36098 ft 429 kts 313°
2026-05-05 19:20 34.31228 26.43001 36095 ft 428 kts 313°
2026-05-05 19:20 34.35395 26.37807 36097 ft 428 kts 313°
2026-05-05 19:21 34.39532 26.32643 36094 ft 427 kts 313°
2026-05-05 19:21 34.43673 26.27465 36094 ft 427 kts 313°
2026-05-05 19:22 34.47797 26.22303 36093 ft 427 kts 313°
2026-05-05 19:22 34.51915 26.17139 36092 ft 427 kts 313°
2026-05-05 19:23 34.56036 26.11963 36089 ft 426 kts 313°
2026-05-05 19:23 34.60163 26.06772 36093 ft 426 kts 313°
2026-05-05 19:24 34.64272 26.01595 36090 ft 426 kts 313°
2026-05-05 19:24 34.68364 25.96433 36088 ft 426 kts 313°
2026-05-05 19:25 34.72489 25.91220 36091 ft 426 kts 313°
2026-05-05 19:25 34.76589 25.86032 36084 ft 426 kts 313°
2026-05-05 19:26 34.80674 25.80854 36085 ft 426 kts 313°
2026-05-05 19:26 34.84781 25.75641 36089 ft 426 kts 313°
2026-05-05 19:27 34.88892 25.70414 36087 ft 426 kts 313°
2026-05-05 19:27 34.92983 25.65205 36089 ft 425 kts 313°
2026-05-05 19:28 34.97062 25.60003 36089 ft 425 kts 313°
2026-05-05 19:28 35.01141 25.54794 36089 ft 425 kts 314°
2026-05-05 19:29 35.05226 25.49568 36091 ft 425 kts 313°
2026-05-05 19:29 35.09300 25.44349 36100 ft 425 kts 314°
2026-05-05 19:30 35.13356 25.39144 36098 ft 425 kts 314°
2026-05-05 19:30 35.17443 25.33891 36097 ft 426 kts 314°
2026-05-05 19:31 35.21510 25.28656 36099 ft 426 kts 314°
2026-05-05 19:31 35.25607 25.23374 36105 ft 426 kts 314°
2026-05-05 19:32 35.29684 25.18110 36098 ft 426 kts 313°
2026-05-05 19:32 35.33741 25.12863 36104 ft 426 kts 314°
2026-05-05 19:33 35.37838 25.07557 36102 ft 426 kts 314°
2026-05-05 19:33 35.41902 25.02285 36102 ft 426 kts 313°
2026-05-05 19:34 35.45960 24.97012 36097 ft 426 kts 313°
2026-05-05 19:35 35.52052 24.89081 36097 ft 425 kts 313°
2026-05-05 19:35 35.56087 24.83817 36091 ft 425 kts 313°
2026-05-05 19:36 35.60160 24.78496 36094 ft 425 kts 313°
2026-05-05 19:36 35.64212 24.73193 36089 ft 425 kts 313°
2026-05-05 19:37 35.68252 24.67898 36094 ft 425 kts 313°
2026-05-05 19:37 35.72290 24.62597 36087 ft 425 kts 313°
2026-05-05 19:38 35.76327 24.57288 36089 ft 425 kts 313°
2026-05-05 19:38 35.80346 24.51996 36089 ft 425 kts 313°
2026-05-05 19:39 35.84384 24.46670 36092 ft 425 kts 313°
2026-05-05 19:39 35.88438 24.41313 36092 ft 425 kts 313°
2026-05-05 19:40 35.92456 24.35995 36086 ft 425 kts 313°
2026-05-05 19:40 35.96464 24.30683 36094 ft 424 kts 313°
2026-05-05 19:41 36.00483 24.25349 36094 ft 424 kts 313°
2026-05-05 19:41 36.04502 24.20004 36092 ft 424 kts 313°
2026-05-05 19:42 36.08512 24.14663 36089 ft 424 kts 313°
2026-05-05 19:42 36.12513 24.09326 36089 ft 424 kts 313°
2026-05-05 19:43 36.16531 24.03958 36085 ft 424 kts 313°
2026-05-05 19:43 36.20534 23.98600 36084 ft 423 kts 313°
2026-05-05 19:44 36.24508 23.93273 36085 ft 423 kts 313°
2026-05-05 19:44 36.28508 23.87903 36085 ft 423 kts 313°
2026-05-05 19:45 36.32505 23.82528 36083 ft 423 kts 313°
2026-05-05 19:45 36.36470 23.77187 36081 ft 423 kts 313°
2026-05-05 19:46 36.39789 23.72709 36079 ft 422 kts 313°
2026-05-05 19:46 36.43781 23.67316 36078 ft 422 kts 313°
2026-05-05 19:47 36.47741 23.61958 36077 ft 422 kts 313°
2026-05-05 19:47 36.51700 23.56591 36074 ft 422 kts 313°
2026-05-05 19:48 36.55671 23.51200 36077 ft 423 kts 313°
2026-05-05 19:48 36.59644 23.45797 36077 ft 423 kts 313°
2026-05-05 19:49 36.63623 23.40377 36078 ft 423 kts 313°
2026-05-05 19:49 36.67576 23.34984 36075 ft 423 kts 313°
2026-05-05 19:50 36.71538 23.29570 36072 ft 424 kts 313°
2026-05-05 19:50 36.75512 23.24129 36077 ft 424 kts 313°
2026-05-05 19:51 36.79489 23.18676 36075 ft 425 kts 313°
2026-05-05 19:51 36.83477 23.13199 36079 ft 425 kts 313°
2026-05-05 19:52 36.87442 23.07744 36077 ft 425 kts 313°
2026-05-05 19:52 36.91418 23.02265 36082 ft 425 kts 312°
2026-05-05 19:53 36.95391 22.96783 36089 ft 425 kts 312°
2026-05-05 19:53 36.99337 22.91325 36090 ft 425 kts 312°
2026-05-05 19:54 37.03331 22.85793 36096 ft 426 kts 312°
2026-05-05 19:54 37.07286 22.80307 36100 ft 426 kts 312°
2026-05-05 19:55 37.11236 22.74818 36098 ft 425 kts 312°
2026-05-05 19:55 37.15197 22.69304 36105 ft 426 kts 312°
2026-05-05 19:56 37.19167 22.63768 36112 ft 426 kts 312°
2026-05-05 19:56 37.23134 22.58226 36117 ft 426 kts 312°
2026-05-05 19:57 37.27071 22.52717 36115 ft 427 kts 312°
2026-05-05 19:57 37.31034 22.47163 36128 ft 427 kts 311°
2026-05-05 19:58 37.35000 22.41594 36131 ft 428 kts 312°
2026-05-05 19:58 37.38963 22.36022 36134 ft 427 kts 311°
2026-05-05 19:59 37.42908 22.30416 36143 ft 428 kts 311°
2026-05-05 19:59 37.46810 22.24757 36147 ft 428 kts 311°
2026-05-05 20:00 37.50717 22.19070 36146 ft 430 kts 311°
2026-05-05 20:00 37.54628 22.13382 36155 ft 429 kts 311°
2026-05-05 20:01 37.58543 22.07684 36153 ft 429 kts 311°
2026-05-05 20:01 37.62452 22.01987 36144 ft 429 kts 311°
2026-05-05 20:02 37.66331 21.96324 36145 ft 429 kts 311°
2026-05-05 20:02 37.70230 21.90620 36156 ft 429 kts 310°
2026-05-05 20:03 37.74129 21.84907 36156 ft 429 kts 310°
2026-05-05 20:03 37.78029 21.79182 36158 ft 429 kts 310°
2026-05-05 20:04 37.81918 21.73464 36146 ft 429 kts 310°
2026-05-05 20:04 37.85809 21.67731 36146 ft 429 kts 310°
2026-05-05 20:05 37.89700 21.61989 36139 ft 430 kts 310°
2026-05-05 20:05 37.93589 21.56239 36135 ft 430 kts 310°
2026-05-05 20:06 37.97478 21.50481 36137 ft 430 kts 310°
2026-05-05 20:06 38.01340 21.44751 36131 ft 430 kts 310°
2026-05-05 20:07 38.05226 21.38975 36129 ft 431 kts 310°
2026-05-05 20:07 38.09112 21.33189 36128 ft 431 kts 310°
2026-05-05 20:08 38.13001 21.27388 36130 ft 431 kts 310°
2026-05-05 20:08 38.16862 21.21618 36130 ft 431 kts 310°
2026-05-05 20:09 38.20743 21.15809 36130 ft 431 kts 310°
2026-05-05 20:09 38.24621 21.09992 36130 ft 431 kts 310°
2026-05-05 20:10 38.28498 21.04167 36131 ft 431 kts 310°
2026-05-05 20:10 38.32375 20.98332 36133 ft 431 kts 310°
2026-05-05 20:11 38.36199 20.92451 36135 ft 431 kts 307°
2026-05-05 20:11 38.39483 20.86064 36137 ft 431 kts 302°
2026-05-05 20:12 38.42665 20.79592 36132 ft 431 kts 302°
2026-05-05 20:12 38.45856 20.73124 36136 ft 430 kts 302°
2026-05-05 20:13 38.49028 20.66708 36139 ft 430 kts 302°
2026-05-05 20:13 38.52216 20.60255 36132 ft 429 kts 302°
2026-05-05 20:14 38.55401 20.53796 36138 ft 429 kts 302°
2026-05-05 20:14 38.58577 20.47341 36130 ft 429 kts 302°
2026-05-05 20:15 38.61750 20.40879 36130 ft 428 kts 302°
2026-05-05 20:15 38.64889 20.34472 36129 ft 428 kts 302°
2026-05-05 20:16 38.68050 20.28009 36131 ft 428 kts 302°
2026-05-05 20:16 38.71208 20.21539 36130 ft 428 kts 302°
2026-05-05 20:17 38.74358 20.15071 36131 ft 429 kts 302°
2026-05-05 20:17 38.77513 20.08579 36127 ft 429 kts 302°
2026-05-05 20:18 38.80666 20.02082 36126 ft 429 kts 302°
2026-05-05 20:18 38.83820 19.95568 36125 ft 430 kts 302°
2026-05-05 20:19 38.86947 19.89095 36126 ft 430 kts 302°
2026-05-05 20:19 38.90098 19.82557 36121 ft 430 kts 302°
2026-05-05 20:20 38.93249 19.76006 36123 ft 431 kts 302°
2026-05-05 20:20 38.96394 19.69453 36122 ft 431 kts 302°
2026-05-05 20:21 38.99540 19.62885 36119 ft 432 kts 302°
2026-05-05 20:21 39.02692 19.56292 36118 ft 432 kts 302°
2026-05-05 20:22 39.05834 19.49705 36118 ft 432 kts 302°
2026-05-05 20:22 39.08976 19.43104 36114 ft 433 kts 302°
2026-05-05 20:23 39.12104 19.36520 36113 ft 433 kts 302°
2026-05-05 20:23 39.15267 19.29848 36108 ft 434 kts 302°
2026-05-05 20:24 39.18397 19.23232 36107 ft 434 kts 302°
2026-05-05 20:24 39.21541 19.16572 36109 ft 435 kts 302°
2026-05-05 20:25 39.24681 19.09905 36110 ft 435 kts 302°
2026-05-05 20:25 39.27801 19.03270 36108 ft 435 kts 302°
2026-05-05 20:26 39.30790 18.96438 36123 ft 435 kts 298°
2026-05-05 20:26 39.33527 18.89450 36102 ft 436 kts 297°
2026-05-05 20:27 39.36239 18.82460 36099 ft 436 kts 297°
2026-05-05 20:27 39.38949 18.75498 36103 ft 436 kts 297°
2026-05-05 20:28 39.41690 18.68464 36100 ft 436 kts 297°
2026-05-05 20:28 39.44405 18.61492 36103 ft 436 kts 297°
2026-05-05 20:29 39.47127 18.54484 36099 ft 435 kts 297°
2026-05-05 20:29 39.49833 18.47502 36098 ft 435 kts 297°
2026-05-05 20:30 39.52560 18.40450 36095 ft 435 kts 297°
2026-05-05 20:30 39.55249 18.33478 36093 ft 435 kts 297°
2026-05-05 20:31 39.57944 18.26472 36090 ft 434 kts 297°
2026-05-05 20:31 39.60636 18.19461 36087 ft 434 kts 297°
2026-05-05 20:32 39.63321 18.12450 36088 ft 434 kts 297°
2026-05-05 20:32 39.65986 18.05475 36084 ft 434 kts 297°
2026-05-05 20:33 39.68657 17.98468 36082 ft 433 kts 297°
2026-05-05 20:33 39.71325 17.91453 36079 ft 433 kts 297°
2026-05-05 20:34 39.73990 17.84429 36078 ft 433 kts 297°
2026-05-05 20:34 39.76646 17.77412 36075 ft 433 kts 297°
2026-05-05 20:35 39.79303 17.70376 36069 ft 433 kts 297°
2026-05-05 20:35 39.81508 17.64524 36070 ft 433 kts 297°
2026-05-05 20:36 39.84160 17.57471 36072 ft 434 kts 297°
2026-05-05 20:36 39.86805 17.50420 36067 ft 434 kts 296°
2026-05-05 20:37 39.89449 17.43354 36066 ft 434 kts 296°
2026-05-05 20:37 39.92092 17.36273 36063 ft 435 kts 296°
2026-05-05 20:38 39.94732 17.29184 36066 ft 435 kts 296°
2026-05-05 20:38 39.97351 17.22133 36062 ft 435 kts 296°
2026-05-05 20:39 39.99988 17.15018 36061 ft 435 kts 296°
2026-05-05 20:39 40.02619 17.07902 36063 ft 435 kts 296°
2026-05-05 20:40 40.05247 17.00776 36056 ft 435 kts 296°
2026-05-05 20:40 40.07868 16.93654 36062 ft 435 kts 296°
2026-05-05 20:41 40.10487 16.86517 36070 ft 436 kts 296°
2026-05-05 20:41 40.13103 16.79373 36097 ft 436 kts 295°
2026-05-05 20:42 40.15717 16.72214 36121 ft 436 kts 295°
2026-05-05 20:42 40.18305 16.65111 36142 ft 436 kts 295°
2026-05-05 20:43 40.20908 16.57948 36153 ft 436 kts 295°
2026-05-05 20:43 40.23508 16.50778 36158 ft 436 kts 295°
2026-05-05 20:44 40.26103 16.43602 36152 ft 436 kts 295°
2026-05-05 20:44 40.28694 16.36421 36139 ft 437 kts 295°
2026-05-05 20:45 40.32582 16.25610 36104 ft 437 kts 295°
2026-05-05 20:45 40.35167 16.18399 36083 ft 437 kts 295°
2026-05-05 20:46 40.37751 16.11174 36075 ft 438 kts 294°
2026-05-05 20:46 40.40329 16.03944 36082 ft 438 kts 294°
2026-05-05 20:47 40.42892 15.96745 36088 ft 438 kts 294°
2026-05-05 20:47 40.45465 15.89493 36086 ft 438 kts 294°
2026-05-05 20:48 40.48034 15.82237 36086 ft 438 kts 294°
2026-05-05 20:48 40.50595 15.74987 36096 ft 438 kts 294°
2026-05-05 20:49 40.53157 15.67710 36093 ft 439 kts 294°
2026-05-05 20:49 40.55718 15.60423 36090 ft 439 kts 294°
2026-05-05 20:50 40.58271 15.53128 36101 ft 438 kts 292°
2026-05-05 20:50 40.59950 15.45430 36097 ft 437 kts 279°
2026-05-05 20:51 40.60396 15.37470 36101 ft 438 kts 270°
2026-05-05 20:51 40.60235 15.29455 36088 ft 438 kts 269°
2026-05-05 20:52 40.60055 15.21442 36084 ft 438 kts 269°
2026-05-05 20:52 40.59902 15.13430 36080 ft 438 kts 269°
2026-05-05 20:53 40.59760 15.05452 36078 ft 438 kts 269°
2026-05-05 20:53 40.59614 14.97430 36076 ft 438 kts 269°
2026-05-05 20:54 40.59462 14.89417 36076 ft 439 kts 269°
2026-05-05 20:54 40.59304 14.81395 36074 ft 439 kts 269°
2026-05-05 20:55 40.59140 14.73360 36076 ft 439 kts 269°
2026-05-05 20:55 40.58971 14.65349 36074 ft 439 kts 269°
2026-05-05 20:56 40.58796 14.57316 36073 ft 439 kts 269°
2026-05-05 20:56 40.58617 14.49285 36069 ft 440 kts 268°
2026-05-05 20:57 40.58696 14.41261 36066 ft 438 kts 282°
2026-05-05 20:57 40.59729 14.37495 36086 ft 441 kts 296°
2026-05-05 20:57 40.61488 14.34162 36095 ft 447 kts 308°
2026-05-05 20:58 40.66382 14.29045 36079 ft 460 kts 332°
2026-05-05 20:58 40.72409 14.26039 36103 ft 466 kts 336°
2026-05-05 20:59 40.78540 14.23148 36108 ft 468 kts 335°
2026-05-05 20:59 40.84611 14.20150 36112 ft 469 kts 335°
2026-05-05 21:00 40.90627 14.17100 35951 ft 454 kts 334°
2026-05-05 21:00 40.93554 14.15608 35842 ft 445 kts 334°
2026-05-05 21:00 40.96423 14.14142 35603 ft 440 kts 334°
2026-05-05 21:01 40.99269 14.12686 35276 ft 437 kts 334°
2026-05-05 21:01 41.02087 14.11243 35115 ft 431 kts 334°
2026-05-05 21:01 41.04871 14.09819 34804 ft 428 kts 334°
2026-05-05 21:01 41.07656 14.08390 34390 ft 429 kts 334°
2026-05-05 21:02 41.10445 14.06960 34012 ft 428 kts 333°
2026-05-05 21:02 41.13178 14.05558 33661 ft 426 kts 333°
2026-05-05 21:02 41.15932 14.04145 33363 ft 423 kts 333°
2026-05-05 21:02 41.18668 14.02740 33037 ft 420 kts 333°
2026-05-05 21:03 41.21379 14.01346 32727 ft 417 kts 333°
2026-05-05 21:03 41.24085 13.99954 32418 ft 415 kts 333°
2026-05-05 21:03 41.26732 13.98497 32062 ft 408 kts 327°
2026-05-05 21:03 41.29089 13.96472 31668 ft 400 kts 316°
2026-05-05 21:04 41.31136 13.94005 31365 ft 393 kts 309°
2026-05-05 21:04 41.32825 13.91194 31057 ft 387 kts 301°
2026-05-05 21:04 41.34324 13.88239 30729 ft 383 kts 300°
2026-05-05 21:04 41.35796 13.85299 30298 ft 380 kts 300°
2026-05-05 21:05 41.37263 13.82387 29828 ft 377 kts 300°
2026-05-05 21:05 41.38731 13.79504 29343 ft 375 kts 300°
2026-05-05 21:05 41.40197 13.76646 28886 ft 372 kts 301°
2026-05-05 21:05 41.41652 13.73813 28422 ft 369 kts 301°
2026-05-05 21:06 41.43054 13.70964 27984 ft 365 kts 296°
2026-05-05 21:06 41.44129 13.67927 27552 ft 360 kts 289°
2026-05-05 21:06 41.44945 13.64801 27117 ft 356 kts 284°
2026-05-05 21:06 41.45487 13.61596 26682 ft 353 kts 278°
2026-05-05 21:07 41.45903 13.58375 26254 ft 351 kts 277°
2026-05-05 21:07 41.46295 13.55163 25828 ft 350 kts 277°
2026-05-05 21:07 41.46685 13.51954 25415 ft 349 kts 277°
2026-05-05 21:07 41.47074 13.48770 25005 ft 347 kts 277°
2026-05-05 21:08 41.47461 13.45641 24572 ft 346 kts 277°
2026-05-05 21:08 41.47855 13.42469 24116 ft 347 kts 277°
2026-05-05 21:08 41.48252 13.39288 23712 ft 346 kts 277°
2026-05-05 21:08 41.48647 13.36131 23273 ft 345 kts 277°
2026-05-05 21:09 41.49040 13.32985 22894 ft 342 kts 277°
2026-05-05 21:09 41.49428 13.29873 22514 ft 339 kts 277°
2026-05-05 21:09 41.49814 13.26783 22112 ft 337 kts 277°
2026-05-05 21:09 41.50197 13.23697 21705 ft 335 kts 277°
2026-05-05 21:10 41.50576 13.20647 21336 ft 333 kts 277°
2026-05-05 21:10 41.50952 13.17611 20949 ft 331 kts 277°
2026-05-05 21:10 41.51324 13.14598 20562 ft 329 kts 277°
2026-05-05 21:10 41.51694 13.11591 20188 ft 327 kts 277°
2026-05-05 21:11 41.52062 13.08599 19822 ft 325 kts 277°
2026-05-05 21:11 41.52426 13.05635 19458 ft 323 kts 277°
2026-05-05 21:11 41.52787 13.02689 19070 ft 322 kts 277°
2026-05-05 21:11 41.53146 12.99752 18731 ft 320 kts 277°
2026-05-05 21:12 41.53500 12.96848 18304 ft 321 kts 277°
2026-05-05 21:12 41.53885 12.93874 17756 ft 320 kts 282°
2026-05-05 21:12 41.54775 12.91173 17223 ft 327 kts 301°
2026-05-05 21:12 41.56321 12.88862 16734 ft 331 kts 313°
2026-05-05 21:13 41.58000 12.86807 16249 ft 333 kts 314°
2026-05-05 21:13 41.59699 12.84760 15746 ft 323 kts 314°
2026-05-05 21:13 41.61325 12.82784 15317 ft 312 kts 314°
2026-05-05 21:13 41.62918 12.80818 14982 ft 310 kts 314°
2026-05-05 21:14 41.64484 12.78867 14714 ft 305 kts 314°
2026-05-05 21:14 41.65933 12.77055 14425 ft 303 kts 314°
2026-05-05 21:14 41.67488 12.75107 14089 ft 302 kts 314°
2026-05-05 21:14 41.69019 12.73189 13742 ft 301 kts 314°
2026-05-05 21:15 41.70543 12.71278 13383 ft 299 kts 314°
2026-05-05 21:15 41.72056 12.69379 13030 ft 298 kts 314°
2026-05-05 21:15 41.73568 12.67481 12684 ft 297 kts 314°
2026-05-05 21:15 41.75068 12.65597 12334 ft 295 kts 314°
2026-05-05 21:16 41.76566 12.63714 11979 ft 294 kts 314°
2026-05-05 21:16 41.78057 12.61838 11661 ft 293 kts 314°
2026-05-05 21:16 41.79543 12.59967 11302 ft 293 kts 314°
2026-05-05 21:16 41.81096 12.58257 11013 ft 289 kts 325°
2026-05-05 21:17 41.82883 12.56973 10565 ft 294 kts 332°
2026-05-05 21:17 41.84739 12.55828 10095 ft 299 kts 333°
2026-05-05 21:17 41.86633 12.54683 9549 ft 291 kts 333°
2026-05-05 21:17 41.88454 12.53567 9027 ft 283 kts 333°
2026-05-05 21:18 41.90218 12.52467 8490 ft 276 kts 332°
2026-05-05 21:18 41.91918 12.51392 8014 ft 270 kts 332°
2026-05-05 21:18 41.93592 12.50324 7490 ft 264 kts 332°
2026-05-05 21:18 41.95235 12.49269 7077 ft 260 kts 332°
2026-05-05 21:19 41.96863 12.48218 6777 ft 258 kts 332°
2026-05-05 21:19 41.98476 12.47177 6492 ft 256 kts 332°
2026-05-05 21:19 42.00078 12.46141 6193 ft 255 kts 332°
2026-05-05 21:19 42.01677 12.45106 5876 ft 254 kts 332°
2026-05-05 21:20 42.03256 12.44083 5625 ft 250 kts 332°
2026-05-05 21:20 42.04796 12.43084 5460 ft 242 kts 332°
2026-05-05 21:20 42.06284 12.42119 5325 ft 233 kts 332°
2026-05-05 21:20 42.07723 12.41187 5169 ft 225 kts 332°
2026-05-05 21:21 42.09080 12.40308 5085 ft 215 kts 331°
2026-05-05 21:21 42.10373 12.39298 5048 ft 212 kts 311°
2026-05-05 21:21 42.11042 12.37646 5015 ft 202 kts 275°
2026-05-05 21:21 42.10910 12.35802 4938 ft 199 kts 247°
2026-05-05 21:22 42.10226 12.34203 4829 ft 197 kts 232°
2026-05-05 21:22 42.09400 12.32746 4720 ft 194 kts 230°
2026-05-05 21:22 42.08571 12.31312 4581 ft 193 kts 230°
2026-05-05 21:22 42.07753 12.29894 4454 ft 192 kts 230°
2026-05-05 21:23 42.06940 12.28473 4299 ft 191 kts 230°
2026-05-05 21:23 42.06132 12.27054 4142 ft 191 kts 230°
2026-05-05 21:23 42.05322 12.25631 3947 ft 192 kts 230°
2026-05-05 21:23 42.04783 12.24681 3833 ft 193 kts 230°
2026-05-05 21:24 42.03966 12.23239 3615 ft 192 kts 230°
2026-05-05 21:24 42.03166 12.21826 3432 ft 187 kts 230°
2026-05-05 21:24 42.02363 12.20498 3241 ft 177 kts 218°
2026-05-05 21:24 42.01298 12.19832 3041 ft 165 kts 192°
2026-05-05 21:25 42.00179 12.19863 3055 ft 163 kts 170°
2026-05-05 21:25 41.99055 12.20183 3030 ft 166 kts 169°
2026-05-05 21:25 41.97965 12.20576 2809 ft 158 kts 166°
2026-05-05 21:25 41.96933 12.20990 2618 ft 152 kts 165°
2026-05-05 21:26 41.95934 12.21405 2431 ft 149 kts 164°
2026-05-05 21:26 41.94940 12.21821 2219 ft 150 kts 164°
2026-05-05 21:26 41.93946 12.22237 2023 ft 149 kts 163°
2026-05-05 21:26 41.92949 12.22637 1799 ft 150 kts 165°
2026-05-05 21:27 41.91963 12.23005 1565 ft 145 kts 162°
2026-05-05 21:27 41.91023 12.23438 1453 ft 142 kts 161°
2026-05-05 21:27 41.90079 12.23871 1249 ft 144 kts 163°
2026-05-05 21:27 41.89158 12.24227 992 ft 137 kts 162°
2026-05-05 21:28 41.88229 12.24598 777 ft 142 kts 160°
2026-05-05 21:28 41.87279 12.25008 630 ft 145 kts 160°
2026-05-05 21:28 41.86313 12.25422 426 ft 147 kts 161°
2026-05-05 21:28 41.85346 12.25826 232 ft 143 kts 160°
2026-05-05 21:29 41.84433 12.26222 60 ft 134 kts 160°
2026-05-05 21:29 41.83590 12.26583 20 ft 115 kts 163°
2026-05-05 21:29 41.82945 12.26846 17 ft 79 kts 163°
2026-05-05 21:29 41.82505 12.27038 16 ft 61 kts 163°
2026-05-05 21:30 41.82119 12.27199 15 ft 55 kts 165°
2026-05-05 21:30 41.81772 12.27330 18 ft 49 kts 161°
2026-05-05 21:30 41.81464 12.27468 18 ft 45 kts 161°
2026-05-05 21:30 41.81321 12.27515 18 ft 13 kts 178°
2026-05-05 21:31 41.81242 12.27501 18 ft 10 kts 201°
2026-05-05 21:31 41.81184 12.27446 17 ft 11 kts 229°
2026-05-05 21:31 41.81132 12.27366 17 ft 12 kts 229°
2026-05-05 21:31 41.81060 12.27323 17 ft 12 kts 177°
2026-05-05 21:32 41.80979 12.27345 17 ft 12 kts 166°
2026-05-05 21:32 41.80897 12.27346 17 ft 12 kts 187°
2026-05-05 21:32 41.80815 12.27330 17 ft 12 kts 189°
2026-05-05 21:32 41.80733 12.27307 17 ft 12 kts 196°
2026-05-05 21:33 41.80667 12.27244 17 ft 12 kts 237°
2026-05-05 21:33 41.80633 12.27141 17 ft 12 kts 248°
2026-05-05 21:33 41.80602 12.27034 18 ft 12 kts 250°
2026-05-05 21:33 41.80573 12.26926 18 ft 13 kts 250°
2026-05-05 21:34 41.80544 12.26816 20 ft 13 kts 250°
2026-05-05 21:34 41.80513 12.26707 20 ft 13 kts 248°
2026-05-05 21:34 41.80481 12.26598 20 ft 13 kts 248°
2026-05-05 21:34 41.80451 12.26488 20 ft 13 kts 251°
2026-05-05 21:35 41.80423 12.26374 20 ft 13 kts 251°
2026-05-05 21:35 41.80390 12.26254 20 ft 14 kts 249°
2026-05-05 21:35 41.80349 12.26139 19 ft 14 kts 232°
2026-05-05 21:35 41.80267 12.26066 19 ft 14 kts 206°
2026-05-05 21:36 41.80176 12.26013 19 ft 14 kts 204°
2026-05-05 21:36 41.80085 12.25957 19 ft 14 kts 205°
2026-05-05 21:36 41.79996 12.25900 19 ft 14 kts 206°
2026-05-05 21:36 41.79905 12.25843 19 ft 14 kts 204°
2026-05-05 21:37 41.79818 12.25779 19 ft 12 kts 206°
2026-05-05 21:37 41.79776 12.25752 19 ft 0 kts 206°
2026-05-05 21:37 41.79761 12.25728 19 ft 0 kts 254°
2026-05-05 21:37 41.79760 12.25703 19 ft 0 kts 274°
2026-05-05 21:38 41.79763 12.25685 19 ft 0 kts 286°